Regional Weather Roundup
Issued by NWS

Home | Current Version | Previous Version | Graphics & Text | Print | Product List | Glossary On
Versions: 1 2 3 4 5 6 7 8 9 10 11 12 13 14 15 16 17 18 19 20 21 22 23 24 25 26 27 28 29 30 31 32 33 34 35 36 37 38 39 40 41 42 43 44 45 46 47 48 49 50
548
ASUS43 KFSD 270010
RWRSD

WEATHER ROUNDUP FOR SOUTH DAKOTA
NATIONAL WEATHER SERVICE SIOUX FALLS SD
700 PM CDT SUN MAR 26 2017

NOTE: "FAIR" INDICATES FEW OR NO CLOUDS BELOW 12,000 FEET WITH NO
SIGNIFICANT WEATHER AND/OR OBSTRUCTIONS TO VISIBILITY.


SDZ001>005-009-010-012>017-270100-
NORTHWEST AND NORTH CENTRAL SOUTH DAKOTA

CITY           SKY/WX    TMP DP  RH WIND       PRES   REMARKS
BUFFALO          N/A     55  37  50 S12       29.83S
FAITH            N/A     50  35  56 MISG      29.91S
MOBRIDGE       CLOUDY    53  35  50 SE6       29.89S
$$

SDZ012>016-024>037-041>051-057-063-072>074-270100-
SOUTHWEST AND SOUTH CENTRAL SOUTH DAKOTA

CITY           SKY/WX    TMP DP  RH WIND       PRES   REMARKS
RAPID CTY ARPT CLOUDY    43  39  86 NW7       29.92F
PIERRE         CLOUDY    46  38  73 W6        29.92S
CUSTER         CLOUDY    38  35  89 N3        29.91S FOG
ELLSWORTH AFB  CLOUDY    44  43  97 NW6       29.92S
PHILIP         CLOUDY    46  37  71 SW5       29.93F
PINE RIDGE     CLOUDY    49  39  68 N7        29.91F
SPEARFISH      FAIR      45  36  70 S3        29.94S
WINNER         FAIR      49  38  65 CALM      29.93R
$$

SDZ004>011-016>023-039-040-270100-
NORTHEAST SOUTH DAKOTA

CITY           SKY/WX    TMP DP  RH WIND       PRES   REMARKS
ABERDEEN       PTCLDY    48  35  60 SE3       29.93S
WATERTOWN      CLOUDY    44  37  76 NW5       29.92S
BROOKINGS      MOCLDY    43  38  82 N7        29.91F
SISSETON         N/A     45  39  79 NE5       29.93S
$$

SDZ017-020-022-023-036>040-048>070-270100-
SOUTHEAST SOUTH DAKOTA

CITY           SKY/WX    TMP DP  RH WIND       PRES   REMARKS
SIOUX FALLS    CLOUDY    46  39  76 N5        29.92S
HURON          PTCLDY    47  38  71 N5        29.93S
CHAMBERLAIN    PTCLDY    47  41  79 NE3       29.93S
MITCHELL       CLOUDY    48  39  71 N6        29.93S
YANKTON        CLOUDY    48  39  71 N3        29.91S
$$

ABBREVIATIONS USED IN REMARKS
   TC - TEMPERATURE IN CELSIUS
  WCI - WIND CHILL INDEX
   HX - HEAT INDEX
  VSB - VISIBILITY





USA.gov is the U.S. government's official web portal to all federal, state and local government web resources and services.